Location: Oakhurst
(33.6448°N, 111.9543°W)
Time: 02:29:41
(UTC+00:00)

CAS-6 - Visible Passes

Search period start: 26 July 2021 00:00
Search period end: 05 August 2021 00:00
Orbit: 614 x 635 km, 97.9° (Epoch: 25 July)

Date Brightness Start Highest point End Pass type
(mag) Time Alt. Az. Time Alt. Az. Time Alt. Az.
26 Jul ? 05:51:48 31° N 05:51:48 31° N 05:54:07 10° N visible
27 Jul ? 04:33:30 10° NE 04:33:30 10° NE 04:33:41 10° NE visible
27 Jul ? 06:10:45 26° NNW 06:10:45 26° NNW 06:12:44 10° NNW visible
28 Jul ? 04:52:28 16° NE 04:52:28 16° NE 04:54:07 10° NNE visible
28 Jul ? 06:29:44 18° NW 06:29:44 18° NW 06:31:08 10° NNW visible
29 Jul ? 05:11:26 22° NE 05:11:26 22° NE 05:13:30 10° NNE visible
29 Jul ? 06:48:42 12° NW 06:48:42 12° NW 06:49:13 10° NW visible
30 Jul ? 05:30:25 26° NNE 05:30:25 26° NNE 05:32:33 10° N visible
31 Jul ? 05:49:23 27° N 05:49:23 27° N 05:51:23 10° N visible
01 Aug ? 06:08:22 23° NNW 06:08:22 23° NNW 06:10:02 10° NNW visible
02 Aug ? 04:50:05 14° NE 04:50:05 14° NE 04:51:14 10° NNE visible
02 Aug ? 06:27:21 17° NW 06:27:21 17° NW 06:28:28 10° NNW visible
03 Aug ? 05:09:03 19° NNE 05:09:03 19° NNE 05:10:41 10° NNE visible
03 Aug ? 06:46:19 11° NW 06:46:19 11° NW 06:46:36 10° NW visible
04 Aug ? 05:28:02 22° NNE 05:28:02 22° NNE 05:29:47 10° N visible
